Time,TemperatureF,DewpointF,PressureIn,WindDirection,WindDirectionDegrees,WindSpeedMPH,WindSpeedGustMPH,Humidity,HourlyPrecipIn,Conditions,Clouds,dailyrainin,SoftwareType,DateUTC
2013-06-10 00:46:00,60.9,50.3,30.07,NW,314,3.0,5.0,68,0.00,,,0.00,Wunderground v.1.15,2013-06-10 04:46:00,
2013-06-10 01:05:00,58.0,49.4,30.08,East,98,1.0,2.0,73,0.00,,,0.00,Wunderground v.1.15,2013-06-10 05:05:00,
2013-06-10 01:16:00,57.5,49.3,30.08,East,100,0.0,0.0,74,0.00,,,0.00,Wunderground v.1.15,2013-06-10 05:16:00,
2013-06-10 01:35:00,57.0,49.5,30.08,ESE,107,0.0,0.0,76,0.00,,,0.00,Wunderground v.1.15,2013-06-10 05:35:00,
2013-06-10 01:45:00,56.7,49.2,30.09,ESE,107,0.0,2.0,76,0.00,,,0.00,Wunderground v.1.15,2013-06-10 05:45:00,
2013-06-10 01:55:00,56.6,49.5,30.09,ESE,107,0.0,0.0,77,0.00,,,0.00,Wunderground v.1.15,2013-06-10 05:55:00,
2013-06-10 02:06:00,56.2,49.4,30.09,ESE,107,0.0,2.0,78,0.00,,,0.00,Wunderground v.1.15,2013-06-10 06:06:00,
2013-06-10 02:16:00,55.3,49.9,30.08,ESE,107,1.0,2.0,82,0.00,,,0.00,Wunderground v.1.15,2013-06-10 06:16:00,
2013-06-10 02:25:00,55.3,49.9,30.08,ESE,107,0.0,0.0,82,0.00,,,0.00,Wunderground v.1.15,2013-06-10 06:25:00,
2013-06-10 02:36:00,55.6,50.2,30.08,ESE,107,0.0,0.0,82,0.00,,,0.00,Wunderground v.1.15,2013-06-10 06:36:00,
2013-06-10 02:46:00,55.9,49.8,30.09,ESE,107,0.0,0.0,80,0.00,,,0.00,Wunderground v.1.15,2013-06-10 06:46:00,
2013-06-10 02:56:00,55.7,50.0,30.09,ESE,107,0.0,3.0,81,0.00,,,0.00,Wunderground v.1.15,2013-06-10 06:56:00,
2013-06-10 03:06:00,55.9,48.8,30.08,ESE,107,2.0,2.0,77,0.00,,,0.00,Wunderground v.1.15,2013-06-10 07:06:00,
2013-06-10 03:26:00,54.2,49.5,30.08,ESE,107,0.0,0.0,84,0.00,,,0.00,Wunderground v.1.15,2013-06-10 07:26:00,
2013-06-10 03:36:00,52.8,48.7,30.07,ESE,107,1.0,1.0,86,0.00,,,0.00,Wunderground v.1.15,2013-06-10 07:36:00,
2013-06-10 03:46:00,52.5,48.4,30.08,ESE,107,0.0,0.0,86,0.00,,,0.00,Wunderground v.1.15,2013-06-10 07:46:00,
2013-06-10 04:35:00,51.1,47.1,30.10,ESE,107,1.0,2.0,86,0.00,,,0.00,Wunderground v.1.15,2013-06-10 08:35:00,
2013-06-10 04:45:00,51.4,46.7,30.10,ESE,107,1.0,1.0,84,0.00,,,0.00,Wunderground v.1.15,2013-06-10 08:45:00,
2013-06-10 05:15:00,52.8,47.1,30.10,ESE,107,0.0,0.0,81,0.00,,,0.00,Wunderground v.1.15,2013-06-10 09:15:00,
2013-06-10 05:25:00,52.3,47.0,30.10,ESE,107,0.0,2.0,82,0.00,,,0.00,Wunderground v.1.15,2013-06-10 09:25:00,
2013-06-10 05:36:00,52.0,47.0,30.11,ESE,107,0.0,0.0,83,0.00,,,0.00,Wunderground v.1.15,2013-06-10 09:36:00,
2013-06-10 05:46:00,52.2,47.2,30.11,ESE,107,0.0,1.0,83,0.00,,,0.00,Wunderground v.1.15,2013-06-10 09:46:00,
2013-06-10 05:56:00,52.6,47.3,30.11,ESE,107,0.0,0.0,82,0.00,,,0.00,Wunderground v.1.15,2013-06-10 09:56:00,
2013-06-10 06:16:00,53.6,47.6,30.11,ESE,107,0.0,0.0,80,0.00,,,0.00,Wunderground v.1.15,2013-06-10 10:16:00,
2013-06-10 06:35:00,52.3,47.0,30.12,ESE,107,1.0,1.0,82,0.00,,,0.00,Wunderground v.1.15,2013-06-10 10:35:00,
2013-06-10 06:45:00,52.6,47.9,30.12,ESE,107,0.0,0.0,84,0.00,,,0.00,Wunderground v.1.15,2013-06-10 10:45:00,
2013-06-10 06:56:00,53.3,48.3,30.12,ESE,107,0.0,2.0,83,0.00,,,0.00,Wunderground v.1.15,2013-06-10 10:56:00,
2013-06-10 07:06:00,53.8,49.1,30.13,ESE,107,0.0,0.0,84,0.00,,,0.00,Wunderground v.1.15,2013-06-10 11:06:00,
2013-06-10 07:26:00,55.4,49.3,30.13,ESE,107,0.0,0.0,80,0.00,,,0.00,Wunderground v.1.15,2013-06-10 11:26:00,
2013-06-10 07:56:00,57.2,49.3,30.13,ESE,107,0.0,0.0,75,0.00,,,0.00,Wunderground v.1.15,2013-06-10 11:56:00,
2013-06-10 09:26:00,65.0,50.3,30.12,SE,130,1.0,1.0,59,0.00,,,0.00,Wunderground v.1.15,2013-06-10 13:26:00,
2013-06-10 09:56:00,66.3,46.6,30.11,SE,126,1.0,1.0,49,0.00,,,0.00,Wunderground v.1.15,2013-06-10 13:56:00,
2013-06-10 10:26:00,67.6,49.3,30.10,SE,146,2.0,2.0,52,0.00,,,0.00,Wunderground v.1.15,2013-06-10 14:26:00,
2013-06-10 11:05:00,67.4,52.1,30.11,SE,136,3.0,5.0,58,0.00,,,0.00,Wunderground v.1.15,2013-06-10 15:05:00,
2013-06-10 11:16:00,67.3,54.3,30.11,ESE,122,3.0,5.0,63,0.00,,,0.00,Wunderground v.1.15,2013-06-10 15:16:00,
2013-06-10 11:26:00,67.9,54.0,30.11,SE,132,3.0,3.0,61,0.00,,,0.00,Wunderground v.1.15,2013-06-10 15:26:00,
2013-06-10 11:35:00,67.6,52.8,30.10,SE,138,3.0,3.0,59,0.00,,,0.00,Wunderground v.1.15,2013-06-10 15:35:00,
2013-06-10 12:05:00,68.3,51.5,30.10,SE,143,2.0,2.0,55,0.00,,,0.00,Wunderground v.1.15,2013-06-10 16:05:00,
2013-06-10 12:26:00,68.6,52.8,30.10,SSE,148,2.0,2.0,57,0.00,,,0.00,Wunderground v.1.15,2013-06-10 16:26:00,
2013-06-10 13:26:00,69.3,54.4,30.09,SE,134,2.0,7.0,59,0.00,,,0.00,Wunderground v.1.15,2013-06-10 17:26:00,
2013-06-10 13:56:00,68.4,52.1,30.08,ESE,114,3.0,6.0,56,0.00,,,0.00,Wunderground v.1.15,2013-06-10 17:56:00,
2013-06-10 15:26:00,67.3,52.9,30.07,SSE,165,3.0,5.0,60,0.00,,,0.00,Wunderground v.1.15,2013-06-10 19:26:00,
2013-06-10 15:35:00,67.3,54.3,30.06,ESE,123,2.0,5.0,63,0.00,,,0.00,Wunderground v.1.15,2013-06-10 19:35:00,
2013-06-10 15:46:00,66.6,54.0,30.06,SE,141,4.0,4.0,64,0.00,,,0.00,Wunderground v.1.15,2013-06-10 19:46:00,
2013-06-10 15:55:00,66.6,54.0,30.06,East,97,3.0,3.0,64,0.00,,,0.00,Wunderground v.1.15,2013-06-10 19:55:00,
2013-06-10 16:06:00,66.6,54.5,30.06,SE,140,1.0,2.0,65,0.00,,,0.00,Wunderground v.1.15,2013-06-10 20:06:00,
2013-06-10 16:26:00,65.8,55.3,30.06,SE,128,3.0,3.0,69,0.00,,,0.00,Wunderground v.1.15,2013-06-10 20:26:00,
2013-06-10 16:36:00,65.8,55.7,30.06,SE,142,2.0,2.0,70,0.00,,,0.00,Wunderground v.1.15,2013-06-10 20:36:00,
2013-06-10 16:46:00,65.8,56.1,30.05,SE,144,1.0,1.0,71,0.00,,,0.00,Wunderground v.1.15,2013-06-10 20:46:00,
2013-06-10 17:26:00,65.3,56.4,30.04,SSE,150,1.0,1.0,73,0.00,,,0.00,Wunderground v.1.15,2013-06-10 21:26:00,
2013-06-10 17:56:00,65.0,55.0,30.03,SSE,150,0.0,0.0,70,0.00,,,0.00,Wunderground v.1.15,2013-06-10 21:56:00,
2013-06-10 18:46:00,64.2,56.1,30.02,South,169,0.0,0.0,75,0.00,,,0.00,Wunderground v.1.15,2013-06-10 22:46:00,
2013-06-10 18:56:00,63.7,56.4,30.02,South,169,0.0,1.0,77,0.00,,,0.00,Wunderground v.1.15,2013-06-10 22:56:00,
2013-06-10 20:26:00,60.5,55.6,29.99,ESE,122,3.0,4.0,84,0.00,,,0.00,Wunderground v.1.15,2013-06-11 00:26:00,
2013-06-10 20:56:00,59.9,55.4,29.99,SE,136,1.0,4.0,85,0.00,,,0.00,Wunderground v.1.15,2013-06-11 00:56:00,
2013-06-10 21:16:00,59.6,55.4,29.99,SE,139,3.0,5.0,86,0.00,,,0.00,Wunderground v.1.15,2013-06-11 01:16:00,
2013-06-10 21:25:00,59.5,55.6,29.99,SSE,152,2.0,5.0,87,0.00,,,0.00,Wunderground v.1.15,2013-06-11 01:25:00,
2013-06-10 21:35:00,59.0,55.4,29.99,SE,136,3.0,3.0,88,0.00,,,0.00,Wunderground v.1.15,2013-06-11 01:35:00,
2013-06-10 21:46:00,58.7,55.5,29.99,SE,136,3.0,5.0,89,0.00,,,0.00,Wunderground v.1.15,2013-06-11 01:46:00,
2013-06-10 21:56:00,58.3,55.4,29.99,SE,132,3.0,3.0,90,0.00,,,0.00,Wunderground v.1.15,2013-06-11 01:56:00,
2013-06-10 22:06:00,58.1,55.5,29.99,SE,132,1.0,1.0,91,0.00,,,0.00,Wunderground v.1.15,2013-06-11 02:06:00,
2013-06-10 22:16:00,57.8,55.5,29.98,SE,139,3.0,3.0,92,0.00,,,0.00,Wunderground v.1.15,2013-06-11 02:16:00,
2013-06-10 22:26:00,57.3,55.0,29.98,SE,139,2.0,2.0,92,0.00,,,0.00,Wunderground v.1.15,2013-06-11 02:26:00,
2013-06-10 22:56:00,56.5,53.0,29.97,SE,144,1.0,1.0,88,0.00,,,0.00,Wunderground v.1.15,2013-06-11 02:56:00,
2013-06-10 23:36:00,56.0,51.2,29.96,SE,144,1.0,1.0,84,0.00,,,0.00,Wunderground v.1.15,2013-06-11 03:36:00,